Location: Voyageurs National Park
(48.5020°N, 92.9292°W)
Time: 15:58:19
(UTC-05:00)

PCSat - Visible Passes

Search period start: 29 August 2015 00:00
Search period end: 08 September 2015 00:00
Orbit: 786 x 795 km, 67.1° (Epoch: 29 August)

Date Brightness Start Highest point End Pass type
(mag) Time Alt. Az. Time Alt. Az. Time Alt. Az.
29 Aug 11.5 02:15:26 18° E 02:15:26 18° E 02:18:30 10° ENE visible
29 Aug 9.5 03:56:10 50° SW 03:57:37 81° NW 04:03:06 10° NNE visible
29 Aug 11.2 05:37:45 10° W 05:41:55 22° NNW 05:46:03 10° NNE visible
30 Aug 11.9 01:45:38 13° E 01:45:38 13° E 01:46:55 10° ENE visible
30 Aug 9.4 03:26:21 71° S 03:26:52 79° ESE 03:32:20 10° NE visible
30 Aug 11.0 05:07:05 13° W 05:10:55 26° NW 05:15:24 10° NNE visible
31 Aug 9.8 02:56:30 59° E 02:56:30 59° E 03:01:31 10° NE visible
31 Aug 10.8 04:37:14 20° W 04:39:57 31° NW 04:44:44 10° NNE visible
01 Sep 10.5 02:26:38 40° E 02:26:38 40° E 02:30:39 10° NE visible
01 Sep 10.5 04:07:21 31° W 04:09:01 38° NW 04:14:04 10° NNE visible
01 Sep 11.8 05:51:14 10° NW 05:54:04 14° NNW 05:56:48 10° NNE visible
02 Sep 11.2 01:56:44 27° ENE 01:56:44 27° ENE 01:59:42 10° NE visible
02 Sep 10.1 03:37:27 45° WNW 03:38:07 47° NW 03:43:23 10° NNE visible
02 Sep 11.7 05:19:40 10° WNW 05:22:57 16° NNW 05:26:09 10° NNE visible
03 Sep 11.7 01:26:48 18° ENE 01:26:48 18° ENE 01:28:40 10° NE visible
03 Sep 9.9 03:07:32 59° NW 03:07:32 59° NW 03:12:40 10° NNE visible
03 Sep 11.6 04:48:15 10° WNW 04:51:52 18° NNW 04:55:30 10° NNE visible
04 Sep 12.0 00:56:52 12° ENE 00:56:52 12° ENE 00:57:28 10° ENE visible
04 Sep 10.1 02:37:34 56° NNE 02:37:34 56° NNE 02:41:56 10° NNE visible
04 Sep 11.4 04:18:18 16° WNW 04:20:49 21° NNW 04:24:52 10° NNE visible
05 Sep 10.6 02:07:37 42° NE 02:07:37 42° NE 02:11:10 10° NE visible
05 Sep 11.1 03:48:19 22° WNW 03:49:48 25° NW 03:54:13 10° NNE visible
05 Sep 12.0 05:33:29 10° NNW 05:35:15 11° N 05:36:58 10° N visible
06 Sep 11.1 01:37:37 30° NE 01:37:37 30° NE 01:40:22 10° NE visible
06 Sep 10.9 03:18:20 29° NW 03:18:49 30° NW 03:23:33 10° NNE visible
06 Sep 11.9 05:01:51 10° NW 05:04:06 12° NNW 05:06:16 10° N visible
07 Sep 11.6 01:07:36 21° NE 01:07:36 21° NE 01:09:30 10° NE visible
07 Sep 10.7 02:48:19 35° NNW 02:48:19 35° NNW 02:52:53 10° NNE visible
07 Sep 11.9 04:30:14 10° NW 04:32:58 14° NNW 04:35:36 10° N visible
